Location: Newark
(27.9675°N, 86.8869°E)
Time: 15:02:18
(UTC+00:00)

Vanguard 3 - Pass Details

Date: 01 November 2019
Orbit: 507 x 3263 km, 33.4° (Epoch: 21 November)

Event Time Altitude Azimuth Distance (km) Brightness Sun altitude
Rises 17:37:52 0° 289° (WNW) 3,448 - -75.9°
Reaches altitude 10° 17:40:51 10° 292° (WNW) 2,208 - -76.1°
Maximum altitude 17:45:33 62° 14° (NNE) 632 - -76.3°
Drops below altitude 10° 17:49:11 10° 96° (E) 1,716 - -76.4°
Sets 17:51:15 0° 100° (E) 2,596 - -76.5°
